Probability
0 0 0 0 0 0 1 1 1 0 1 2 3 4 4 4 5 4 5 6 5 4 3 3 3 2 1 0 0 0 0 0 0 0 0 0 0 0 0 0 0 0 0
0 0 0 0 0 0 0 0 0 0 0 1 2 3 4 4 5 5 5 6 4 3 2 2 2 1 0 0 0 0 0 0 0 0 0 0 0 0 0 0 0 0 0
0 0 0 0 0 0 0 0 0 0 0 0 1 3 4 5 5 4 5 5 3 1 1 1 1 0 0 0 0 0 1 1 0 0 0 0 0 0 0 0 0 0 0
0 0 0 0 0 0 0 0 0 0 0 0 1 2 3 3 3 3 3 3 1 0 0 0 1 1 1 1 1 1 2 2 1 0 0 0 1 1 1 0 0 0 0
1 0 0 0 0 0 0 1 2 1 0 0 0 0 1 1 1 1 1 1 0 0 0 0 1 2 2 1 1 2 3 2 1 0 0 0 1 2 2 1 1 1 1
2 1 0 0 0 0 1 3 3 2 1 0 0 0 0 0 0 0 0 0 0 0 0 0 1 1 1 1 1 1 2 2 2 0 0 0 0 1 2 2 1 1 2
2 1 0 0 0 1 2 4 5 3 1 0 0 0 0 0 0 0 0 0 0 0 0 0 0 0 0 0 0 0 1 2 1 0 0 0 0 0 1 1 1 1 1
2 1 0 0 0 1 3 4 4 4 1 0 0 0 0 0 0 0 0 0 0 0 0 0 0 0 0 0 0 0 0 1 1 0 0 0 0 0 0 0 0 0 0
1 0 0 0 0 1 2 3 4 3 1 0 0 0 0 0 0 0 0 0 0 0 0 0 0 0 0 0 0 0 0 0 0 0 0 0 0 0 0 0 0 0 0
1 0 0 0 0 1 2 3 2 1 0 0 0 0 0 0 0 0 0 0 0 0 0 0 0 0 0 0 0 0 0 0 0 0 0 0 0 0 0 0 0 0 0
1 0 0 0 0 0 1 2 1 0 0 0 0 0 0 0 0 0 0 0 0 0 0 0 0 1 0 0 0 0 0 0 0 0 0 0 0 0 0 0 0 1 1
1 1 0 0 0 0 0 0 0 0 0 0 0 0 0 0 0 0 0 0 0 0 0 0 0 0 0 0 0 0 0 0 0 0 0 0 0 1 1 1 1 2 2
1 1 1 1 1 0 0 0 0 0 0 0 0 0 0 0 0 0 0 0 0 0 0 0 0 0 0 0 0 0 0 0 0 0 0 0 1 2 2 2 2 2 2
1 1 1 2 2 1 0 0 0 0 0 0 0 0 0 0 0 0 0 0 0 0 0 0 0 0 0 0 0 0 0 0 0 0 0 0 1 2 3 2 1 1 1
3 2 1 3 3 2 1 0 0 0 0 0 0 0 0 0 0 0 0 0 0 0 0 0 0 0 0 0 0 0 0 0 0 0 0 0 1 2 2 2 1 0 0
5 4 3 3 3 2 1 0 0 0 0 0 0 0 0 0 0 0 0 0 0 0 0 0 0 0 0 0 0 0 0 0 0 0 0 0 0 1 1 1 1 0 0
6 6 5 4 3 2 1 0 0 0 0 0 0 0 0 0 0 0 0 0 0 0 0 0 0 0 0 0 0 0 0 0 0 0 0 0 0 0 1 1 0 0 0
6 6 6 5 4 3 1 0 0 0 0 0 0 0 1 1 1 0 0 0 0 0 0 0 0 0 0 0 0 0 0 0 0 0 0 0 0 0 0 1 1 1 0
5 6 6 6 5 4 2 0 0 0 0 0 0 0 1 2 2 1 0 0 0 0 0 0 0 0 0 0 0 0 0 0 0 0 0 0 0 0 0 1 2 1 1
4 5 6 6 6 5 2 0 0 0 0 0 0 0 1 2 3 2 1 0 0 0 0 0 0 0 0 0 0 0 0 0 0 0 0 0 0 0 0 0 1 1 1
4 4 4 5 5 5 3 1 0 0 0 0 0 0 0 1 2 3 2 1 0 0 0 0 0 0 0 0 0 0 0 0 0 0 0 0 0 0 0 0 0 1 1
3 3 3 4 4 3 2 1 0 0 0 0 0 0 0 0 1 2 2 1 0 0 0 0 0 0 0 0 0 0 0 0 0 0 0 0 0 0 0 0 0 1 1
1 2 2 2 2 1 1 0 0 0 0 0 0 0 0 0 0 1 2 2 1 0 0 0 0 0 0 0 0 0 0 0 0 0 0 0 0 0 0 0 0 0 1
0 0 0 1 1 0 0 0 0 0 0 0 0 0 0 0 0 1 2 2 1 0 0 0 0 0 0 0 0 0 0 0 0 0 0 0 0 0 0 0 0 0 1
0 0 0 0 0 0 0 0 0 0 0 0 0 0 0 0 0 0 1 1 1 0 0 0 0 0 0 0 0 0 0 0 0 0 0 0 0 0 0 0 0 0 0
0 0 0 0 0 0 0 0 0 0 0 0 0 0 0 0 0 0 0 1 1 1 0 0 0 0 0 0 0 0 0 0 0 0 0 0 0 0 0 0 0 0 0
Wind_Speed
0 0 5 7 8 8 8 9 10 11 11 11 12 12 12 12 12 12 12 12 12 11 11 11 11 11 11 11 11 11 11 11 11 11 10 10 9 9 9 9 8 6 9
3 2 6 8 8 8 9 10 11 12 12 12 13 12 12 12 12 12 12 12 12 12 11 11 12 12 12 12 12 11 11 11 11 10 9 8 9 8 8 8 8 5 9
5 3 5 8 9 10 10 11 11 12 13 13 13 13 12 12 12 12 12 12 12 12 11 11 12 12 12 12 12 12 12 11 11 10 8 4 5 8 8 8 8 8 9
6 4 5 8 9 10 11 11 12 13 13 13 13 13 12 12 12 12 12 12 12 12 12 11 11 11 12 12 12 12 12 11 11 9 5 4 4 8 8 8 8 8 8
6 4 6 9 10 10 11 11 12 12 13 13 13 13 12 12 12 12 12 12 11 11 11 11 11 11 11 11 11 11 11 11 10 7 4 4 3 8 9 8 8 8 8
6 4 5 9 10 11 11 11 12 12 12 13 12 12 12 12 12 12 11 11 11 11 10 10 10 10 10 11 11 11 11 11 8 5 4 3 3 8 9 8 8 8 8
5 4 5 10 10 11 11 11 11 11 12 12 12 11 11 11 11 11 11 11 10 10 10 9 9 9 10 10 10 10 10 10 6 4 3 3 4 8 9 8 8 7 7
7 5 5 10 11 11 11 11 11 11 11 11 11 11 11 10 10 11 10 10 10 9 9 8 8 8 9 9 9 9 9 8 6 5 3 2 6 8 8 7 7 7 7
6 5 3 4 7 10 11 10 10 10 10 10 10 10 10 10 10 10 9 9 9 9 9 8 8 8 8 8 9 9 9 8 4 2 3 2 6 8 8 7 7 7 7
5 5 4 3 4 4 5 9 9 9 9 9 9 9 9 8 8 8 8 8 8 8 8 8 8 8 8 8 8 8 8 6 4 3 2 3 7 8 8 8 8 7 7
5 3 4 3 3 3 3 5 6 7 7 7 6 8 6 3 3 3 5 7 7 7 7 7 8 8 8 7 8 8 6 3 3 2 2 5 8 9 9 9 8 7 7
5 4 4 4 4 3 3 3 2 2 2 3 2 3 2 2 2 3 4 5 6 7 7 7 7 7 5 3 5 6 3 3 3 2 2 7 9 10 9 9 8 8 8
6 5 5 4 4 3 2 2 1 1 1 1 2 3 2 2 2 2 2 3 3 5 4 5 5 3 3 3 3 3 3 3 2 2 3 7 9 9 9 9 8 8 8
6 5 5 5 4 3 3 2 2 1 1 1 2 3 3 2 2 1 1 2 2 2 3 3 3 4 4 4 4 4 4 3 2 2 3 7 8 8 8 8 8 9 8
6 5 5 5 4 3 3 2 2 2 2 2 2 2 3 3 2 2 1 1 2 2 3 3 3 4 4 4 4 5 4 4 3 3 2 6 7 7 8 8 8 8 7
6 6 5 5 4 4 3 2 2 2 2 2 2 2 3 3 3 2 2 2 2 2 2 3 3 3 3 3 4 4 4 3 3 3 3 3 6 7 7 8 8 8 8
7 6 6 6 5 5 4 3 3 2 2 2 2 2 3 3 3 3 2 2 2 2 3 3 3 3 4 4 4 4 3 3 3 3 3 2 3 5 7 7 8 8 7
6 6 6 6 6 5 4 3 3 2 3 2 2 2 3 3 3 3 2 2 2 2 3 3 3 3 3 3 3 2 2 2 3 3 3 3 3 3 5 8 8 7 7
6 6 5 5 5 4 4 3 3 3 3 2 2 2 2 3 3 3 2 2 2 3 3 3 3 3 3 2 2 3 2 2 2 3 3 3 3 3 2 5 7 7 7
6 6 5 4 4 4 3 3 2 3 2 2 2 2 3 3 3 3 3 3 3 3 3 3 3 2 2 2 3 3 3 2 2 2 2 2 2 2 2 2 3 3 5
5 6 5 5 4 4 3 2 2 1 1 1 1 2 3 3 3 4 3 3 3 3 3 3 3 3 2 2 3 3 3 3 3 2 1 2 2 2 2 2 1 2 2
6 6 5 5 5 4 3 2 2 2 1 1 1 2 2 2 3 4 4 3 3 3 3 3 3 2 1 1 2 2 2 3 3 3 2 1 1 1 1 1 1 1 1
6 5 5 5 5 4 4 3 2 2 2 2 1 0 0 2 2 3 4 3 3 3 3 2 3 3 2 1 1 3 3 2 1 3 2 2 1 1 0 1 1 1 0
6 5 5 5 5 4 4 4 4 3 2 2 1 1 0 1 2 2 3 4 3 3 3 2 2 2 3 1 0 1 2 3 3 0 2 2 2 1 0 0 0 0 0
6 6 5 5 4 4 4 5 4 3 2 1 1 1 0 0 1 2 3 3 3 3 3 3 2 2 2 2 1 1 2 1 2 3 1 2 2 2 1 0 0 0 0
5 5 5 5 4 4 5 5 5 5 3 3 2 2 1 0 0 1 2 3 3 3 3 3 3 3 2 2 2 2 2 2 2 2 2 1 1 2 2 1 0 0 0
Wind_Direction
114 262 94 88 85 80 78 77 80 83 82 90 95 96 95 92 91 89 89 88 88 87 86 86 87 90 92 92 94 99 104 103 103 102 100 101 104 105 108 108 110 110 114
152 126 94 88 84 83 84 84 86 87 85 93 96 94 92 91 91 91 91 89 89 87 86 86 88 90 91 91 91 94 99 100 101 99 97 98 103 108 113 117 118 120 118
128 116 100 93 87 86 91 91 90 92 90 92 93 93 90 90 90 92 91 90 89 87 87 87 89 89 89 90 90 91 92 93 94 90 88 80 91 100 109 115 119 121 121
125 115 105 99 93 89 89 92 93 93 93 93 91 90 89 89 91 91 90 89 89 87 86 87 88 87 88 89 90 90 89 90 90 87 78 74 83 94 104 112 116 118 121
112 108 114 104 98 94 91 90 95 95 93 93 92 90 88 88 90 92 91 89 90 90 88 88 87 86 87 87 88 88 90 89 85 78 73 70 79 96 100 107 109 116 118
113 111 117 110 105 100 96 95 95 96 95 94 91 89 88 88 89 91 91 90 89 91 90 89 87 85 86 86 87 89 89 86 80 71 72 76 85 99 102 104 106 112 121
120 119 118 111 107 106 102 99 97 97 97 96 95 92 89 89 90 90 90 89 89 87 89 89 86 82 83 84 83 85 88 85 76 68 69 81 96 103 107 108 108 110 119
128 124 121 116 112 109 106 101 98 99 99 98 97 96 94 92 92 92 93 91 89 86 86 86 83 83 83 84 83 82 87 85 79 77 66 79 108 108 109 112 115 112 120
124 121 110 117 114 111 110 106 102 101 102 101 98 97 96 95 95 97 94 93 90 86 83 80 81 84 83 86 87 88 85 78 67 71 88 85 109 109 109 109 109 114 117
122 123 123 116 109 110 110 111 107 104 104 105 104 100 97 94 93 95 94 92 88 86 83 80 80 80 79 83 87 91 87 74 61 59 66 98 107 110 110 104 102 103 108
134 134 136 134 128 126 124 117 111 110 106 104 102 102 93 72 72 81 91 91 88 82 80 78 78 76 77 78 84 84 81 70 63 55 64 98 106 108 106 102 98 99 102
155 163 157 152 149 145 135 113 99 96 89 88 94 98 90 82 67 69 70 76 76 74 70 68 71 71 68 67 72 77 73 69 65 62 86 102 107 106 106 102 97 95 95
159 159 164 169 161 150 131 132 118 91 88 91 101 110 105 86 62 47 41 42 45 59 54 54 54 51 62 70 73 75 76 69 56 51 80 105 108 104 102 100 96 95 94
146 153 154 159 152 153 145 142 133 120 112 106 110 117 109 94 78 65 48 29 36 51 66 61 62 60 66 71 74 77 74 70 59 47 67 97 107 106 102 98 97 94 91
147 152 150 148 147 143 131 133 122 128 130 121 107 110 116 115 114 98 74 52 52 65 78 76 74 71 70 73 78 84 81 75 64 53 48 77 98 106 107 105 99 95 94
150 152 149 141 144 138 132 129 127 131 122 106 99 116 124 127 122 109 87 68 60 71 84 88 87 84 74 78 73 73 79 78 71 68 53 54 78 93 99 100 96 94 92
157 154 155 150 145 144 141 141 129 125 111 98 96 101 107 110 113 111 95 80 70 78 85 83 76 74 73 72 66 65 69 69 71 70 64 53 54 74 84 90 91 88 86
153 153 160 152 144 141 140 130 126 120 108 103 103 92 98 100 103 102 96 88 85 78 80 86 81 80 70 68 64 65 73 72 71 72 66 62 57 53 64 75 81 80 80
156 155 149 138 139 140 130 116 117 112 104 107 108 98 99 97 100 106 107 102 97 86 81 94 81 97 91 72 69 64 61 70 73 77 71 68 71 70 52 61 68 72 74
152 147 140 128 129 127 112 96 87 86 94 99 103 110 109 101 101 99 98 95 93 89 79 91 97 82 93 95 79 58 44 46 55 68 83 76 72 80 70 58 51 50 62
139 134 128 127 131 124 116 122 121 124 128 101 111 120 118 116 115 108 104 101 98 101 105 108 106 88 69 84 80 46 21 29 41 44 63 79 73 77 87 81 65 42 28
151 149 140 138 140 136 140 151 152 146 147 132 108 106 119 125 137 133 127 123 115 108 101 99 104 100 78 76 111 99 39 4 4 13 27 69 67 67 85 97 84 65 27
154 159 153 153 150 142 132 117 93 71 55 45 44 69 144 140 147 140 140 131 127 123 128 128 128 125 132 48 102 132 137 193 307 341 2 19 30 67 67 76 84 67 47
165 159 154 156 147 144 137 135 138 137 149 193 189 199 251 145 139 150 148 140 139 133 136 146 135 135 136 142 42 59 131 152 149 323 334 342 357 43 22 88 76 58 56
164 161 164 161 155 155 150 146 144 141 157 156 129 124 93 55 128 168 154 145 147 146 152 147 136 136 148 156 155 128 89 76 107 135 229 315 341 330 326 220 189 201 178
162 164 166 162 163 163 153 151 152 153 155 143 151 164 170 92 39 123 148 150 154 155 162 166 162 157 161 151 146 146 149 147 161 144 166 227 277 303 324 340 195 226 217